YAOGAN 27               
1 40878U 15040A   19266.53881007 -.00000043  00000-0  00000+0 0  9990
2 40878 100.2780 318.1290 0009064 117.5549 242.6485 13.15963012195773
CZ-4C R/B               
1 40879U 15040B   19265.81143856 -.00000048  00000-0 -46373-5 0  9999
2 40879 100.3254   0.1435 0093925 108.9252 252.2080 13.33231693198251
CZ-4C DEB               
1 43424U 15040C   19265.04931848 -.00000094  00000-0 -14193-3 0  9993
2 43424 100.2871 301.4355 0152483 144.2732 216.8696 13.09987350190053
CZ-4C DEB               
1 43425U 15040D   19265.16497654 -.00000027  00000-0  38749-4 0  9998
2 43425 100.3825 341.9718 0143303 105.0461 256.6563 13.21923530195448